Regional Weather Roundup
Issued by NWS

Home | Current Version | Previous Version | Graphics & Text | Print | Product List | Glossary On
Versions: 1 2 3 4 5 6 7 8 9 10 11 12 13 14 15 16 17 18 19 20 21 22 23 24 25 26 27 28 29 30 31 32 33 34 35 36 37 38 39 40 41 42 43 44 45 46 47 48 49 50
000
ASUS45 KSLC 281010
RWRUT

UTAH REGIONAL WEATHER ROUNDUP
NATIONAL WEATHER SERVICE SALT LAKE CITY UT
400 AM MDT MON JUL 28 2014

UTZ001>011-023>025-281100-

NORTHERN UTAH

CITY           SKY/WX    TMP DP  RH WIND       PRES   REMARKS
HILL AFB       MOCLDY    77  45  31 N3        30.19F
LOGAN          CLEAR     63  45  51 CALM      30.17R
OGDEN          MOCLDY    76  43  30 CALM      30.16F
PROVO AIRPORT  CLOUDY    75  48  38 SE8       30.19S
SALT LAKE CITY MOCLDY    79  47  32 NW5       30.13R
VERNAL         MOCLDY    66  43  43 W3        30.27R
WENDOVER       CLOUDY    84  43  23 W7        30.13S
HEBER CITY     MOCLDY    61  46  59 SE7       30.26F
WEST JORDAN    CLEAR     82  55  39 SW7       30.17R

$$

UTZ012>022-026-027-281100-

SOUTHERN UTAH

CITY           SKY/WX    TMP DP  RH WIND       PRES   REMARKS
BRYCE CANYON   LGT RAIN  57  54  89 NW8       30.47F
CEDAR CITY     CLOUDY    70  52  52 SE7       30.29F
MILFORD        CLOUDY    73  52  47 S14       30.25S
MOAB/CYNLANDS  PTCLDY    72  58  61 S12       30.24R
PRICE          CLOUDY    72  48  42 NE5       30.35S
ST GEORGE      PTSUNNY   79  55  44 NE3       30.13F
KANAB            N/A     64  59  82 CALM      30.32S

$$

REGIONAL REPORTS     COLORADO/ARIZONA

CITY           SKY/WX    TMP DP  RH WIND       PRES   REMARKS
CRAIG, CO      PTCLDY    44  43  96 CALM      30.36R
GRAND JUNCTION MOCLDY    74  50  42 NE3       30.27S
RIFLE          CLOUDY    67  47  48 SE6       30.32S
MONTROSE       MOCLDY    68  52  56 CALM      30.37R
CORTEZ         CLOUDY    65  58  78 CALM      30.41R
PAGE, AZ       MOCLDY    76  55  48 SW3       30.23F
GRAND CANYON   CLOUDY    59  56  89 CALM      30.39R
KINGMAN        CLOUDY    79  56  45 SE14      30.13S
FLAGSTAFF      CLOUDY    60  52  74 CALM      30.43F

$$

REGIONAL REPORTS    NEVADA/IDAHO/WYOMING

CITY           SKY/WX    TMP DP  RH WIND       PRES   REMARKS
LAS VEGAS, NV  CLOUDY    81  61  50 S8        30.02R
ELY            CLOUDY    61  51  70 W3        30.33F
ELKO           CLOUDY    74  45  35 W3        30.21S
POCATELLO, ID  CLEAR     58  42  55 N7        30.15R
BURLEY         PTCLDY    69  41  36 S10       30.12R
EVANSTON, WY   CLOUDY    65  22  19 CALM      30.39S
ROCK SPRINGS   PTCLDY    61  44  53 E7        30.39R

$$



USA.gov is the U.S. government's official web portal to all federal, state and local government web resources and services.